Precipitable_Water
0.46 0.41 0.39 0.37 0.40 0.41 0.44 0.40 0.38 0.36 0.37 0.36 0.43 0.47 0.51 0.53 0.54 0.53 0.47 0.52 0.40 0.27 0.25 0.28 0.27 0.22 0.23 0.26 0.24 0.29 0.30 0.33 0.32 0.25 0.24 0.23 0.21 0.23 0.20 0.24 0.22 0.21 0.20 0.19 0.20 0.17 0.14 0.38 0.37 0.27 0.41 0.48 0.48 0.49
0.42 0.43 0.41 0.42 0.45 0.45 0.42 0.39 0.37 0.35 0.34 0.39 0.46 0.50 0.53 0.54 0.54 0.56 0.43 0.52 0.50 0.34 0.26 0.32 0.31 0.30 0.29 0.31 0.31 0.33 0.32 0.34 0.35 0.29 0.29 0.29 0.22 0.25 0.25 0.19 0.34 0.24 0.29 0.25 0.29 0.27 0.39 0.43 0.40 0.41 0.50 0.49 0.51 0.51
0.36 0.37 0.39 0.42 0.47 0.43 0.39 0.36 0.33 0.33 0.36 0.46 0.52 0.52 0.54 0.54 0.55 0.56 0.48 0.49 0.43 0.32 0.27 0.24 0.19 0.25 0.31 0.32 0.34 0.26 0.33 0.39 0.38 0.42 0.35 0.32 0.25 0.32 0.24 0.26 0.28 0.30 0.35 0.31 0.32 0.36 0.38 0.41 0.42 0.43 0.48 0.50 0.52 0.53
0.34 0.35 0.37 0.38 0.44 0.41 0.36 0.33 0.32 0.36 0.43 0.49 0.51 0.53 0.56 0.56 0.56 0.57 0.48 0.50 0.42 0.32 0.21 0.19 0.27 0.23 0.30 0.32 0.32 0.32 0.31 0.39 0.40 0.39 0.34 0.32 0.29 0.40 0.31 0.32 0.28 0.30 0.33 0.31 0.33 0.37 0.39 0.39 0.41 0.43 0.46 0.50 0.51 0.52
0.33 0.35 0.36 0.41 0.42 0.38 0.34 0.31 0.32 0.39 0.46 0.51 0.54 0.57 0.62 0.63 0.58 0.58 0.54 0.51 0.49 0.34 0.21 0.20 0.26 0.27 0.31 0.31 0.28 0.32 0.32 0.33 0.34 0.29 0.29 0.29 0.38 0.38 0.37 0.33 0.28 0.32 0.31 0.29 0.28 0.37 0.37 0.37 0.41 0.44 0.45 0.46 0.48 0.48
0.35 0.35 0.35 0.40 0.38 0.35 0.30 0.32 0.36 0.43 0.48 0.54 0.57 0.61 0.65 0.65 0.60 0.54 0.40 0.51 0.52 0.46 0.30 0.18 0.27 0.25 0.30 0.31 0.29 0.27 0.32 0.34 0.36 0.33 0.31 0.37 0.44 0.39 0.31 0.27 0.32 0.35 0.39 0.41 0.37 0.42 0.42 0.42 0.43 0.44 0.44 0.45 0.47 0.47
0.35 0.35 0.38 0.39 0.35 0.30 0.32 0.37 0.40 0.44 0.53 0.57 0.61 0.64 0.65 0.65 0.60 0.45 0.37 0.45 0.53 0.51 0.33 0.23 0.21 0.28 0.36 0.34 0.29 0.28 0.32 0.33 0.36 0.34 0.33 0.35 0.38 0.41 0.33 0.27 0.34 0.37 0.40 0.41 0.44 0.44 0.39 0.42 0.40 0.44 0.45 0.45 0.46 0.45
0.39 0.40 0.39 0.36 0.31 0.32 0.36 0.37 0.42 0.48 0.55 0.58 0.62 0.65 0.66 0.66 0.61 0.49 0.57 0.56 0.56 0.44 0.38 0.25 0.22 0.24 0.40 0.30 0.28 0.36 0.29 0.33 0.37 0.33 0.36 0.34 0.37 0.38 0.29 0.34 0.36 0.38 0.40 0.41 0.42 0.44 0.42 0.43 0.42 0.41 0.42 0.42 0.41 0.40
0.41 0.40 0.36 0.34 0.31 0.32 0.36 0.42 0.48 0.54 0.57 0.61 0.64 0.65 0.61 0.53 0.46 0.49 0.61 0.59 0.58 0.45 0.30 0.29 0.22 0.21 0.41 0.35 0.34 0.33 0.34 0.26 0.37 0.29 0.31 0.35 0.32 0.27 0.32 0.35 0.36 0.37 0.36 0.38 0.40 0.39 0.38 0.36 0.35 0.35 0.35 0.35 0.34 0.34
0.39 0.36 0.33 0.30 0.29 0.33 0.41 0.49 0.54 0.58 0.59 0.62 0.60 0.48 0.38 0.48 0.63 0.59 0.49 0.40 0.40 0.40 0.38 0.27 0.32 0.24 0.34 0.35 0.28 0.29 0.33 0.27 0.23 0.30 0.39 0.30 0.27 0.33 0.35 0.36 0.36 0.35 0.34 0.36 0.32 0.30 0.31 0.29 0.29 0.30 0.30 0.31 0.31 0.31
0.35 0.32 0.30 0.29 0.32 0.40 0.50 0.54 0.58 0.60 0.61 0.54 0.44 0.39 0.52 0.61 0.51 0.42 0.32 0.30 0.32 0.27 0.31 0.30 0.29 0.26 0.39 0.29 0.28 0.31 0.29 0.29 0.22 0.28 0.30 0.27 0.25 0.30 0.34 0.34 0.35 0.34 0.34 0.32 0.32 0.31 0.31 0.30 0.29 0.28 0.28 0.29 0.28 0.28
0.30 0.29 0.30 0.35 0.43 0.52 0.56 0.59 0.61 0.58 0.52 0.52 0.50 0.55 0.52 0.43 0.37 0.30 0.26 0.29 0.26 0.22 0.27 0.25 0.27 0.31 0.36 0.41 0.32 0.32 0.29 0.31 0.24 0.37 0.30 0.24 0.28 0.32 0.33 0.32 0.33 0.33 0.31 0.30 0.31 0.29 0.29 0.28 0.28 0.27 0.26 0.26 0.26 0.26
0.33 0.39 0.44 0.49 0.55 0.58 0.59 0.60 0.61 0.61 0.59 0.56 0.45 0.38 0.36 0.34 0.25 0.22 0.17 0.21 0.21 0.25 0.27 0.29 0.28 0.34 0.38 0.39 0.34 0.33 0.28 0.27 0.37 0.29 0.25 0.26 0.31 0.32 0.31 0.30 0.30 0.31 0.30 0.29 0.28 0.28 0.27 0.27 0.26 0.25 0.24 0.24 0.24 0.22
0.51 0.55 0.57 0.58 0.59 0.60 0.60 0.61 0.62 0.59 0.53 0.39 0.33 0.25 0.25 0.23 0.23 0.22 0.20 0.22 0.27 0.27 0.29 0.33 0.32 0.32 0.34 0.33 0.35 0.26 0.30 0.31 0.23 0.21 0.22 0.27 0.30 0.30 0.30 0.29 0.28 0.27 0.27 0.27 0.26 0.26 0.25 0.25 0.24 0.24 0.23 0.21 0.19 0.17
0.56 0.59 0.61 0.59 0.59 0.59 0.60 0.62 0.62 0.57 0.46 0.35 0.32 0.21 0.22 0.27 0.27 0.27 0.30 0.30 0.33 0.34 0.33 0.33 0.35 0.37 0.33 0.31 0.32 0.30 0.25 0.21 0.23 0.22 0.25 0.28 0.29 0.29 0.28 0.28 0.28 0.28 0.27 0.26 0.26 0.26 0.25 0.24 0.20 0.18 0.17 0.16 0.15 0.14
0.57 0.55 0.55 0.58 0.58 0.60 0.62 0.63 0.54 0.50 0.42 0.34 0.29 0.24 0.26 0.24 0.24 0.28 0.30 0.30 0.35 0.36 0.37 0.37 0.33 0.30 0.29 0.29 0.25 0.23 0.22 0.20 0.23 0.26 0.28 0.30 0.29 0.29 0.29 0.29 0.28 0.28 0.27 0.26 0.25 0.22 0.20 0.18 0.16 0.15 0.16 0.16 0.16 0.15
0.53 0.47 0.54 0.56 0.59 0.59 0.58 0.52 0.47 0.39 0.35 0.29 0.26 0.28 0.26 0.24 0.25 0.29 0.32 0.32 0.39 0.35 0.28 0.32 0.26 0.26 0.32 0.25 0.23 0.26 0.23 0.25 0.27 0.28 0.30 0.30 0.29 0.29 0.29 0.28 0.28 0.27 0.23 0.21 0.19 0.18 0.17 0.18 0.18 0.17 0.15 0.15 0.14 0.14
0.48 0.52 0.54 0.56 0.55 0.52 0.49 0.47 0.40 0.33 0.25 0.27 0.24 0.25 0.29 0.31 0.30 0.31 0.33 0.37 0.35 0.33 0.34 0.29 0.32 0.26 0.23 0.21 0.22 0.26 0.27 0.28 0.29 0.30 0.29 0.29 0.29 0.29 0.29 0.26 0.23 0.21 0.19 0.19 0.18 0.18 0.18 0.17 0.16 0.15 0.14 0.14 0.13 0.12
0.53 0.56 0.58 0.58 0.56 0.47 0.40 0.37 0.34 0.25 0.26 0.28 0.28 0.29 0.30 0.32 0.34 0.35 0.35 0.38 0.38 0.38 0.36 0.31 0.26 0.24 0.25 0.27 0.26 0.26 0.27 0.28 0.29 0.29 0.29 0.29 0.30 0.26 0.22 0.20 0.20 0.19 0.19 0.19 0.19 0.18 0.17 0.17 0.15 0.14 0.13 0.13 0.11 0.11
0.56 0.56 0.57 0.55 0.49 0.37 0.33 0.32 0.36 0.28 0.25 0.28 0.31 0.31 0.31 0.31 0.33 0.34 0.34 0.34 0.34 0.34 0.31 0.27 0.26 0.28 0.27 0.28 0.28 0.28 0.28 0.30 0.29 0.27 0.28 0.25 0.21 0.20 0.20 0.20 0.20 0.20 0.20 0.19 0.18 0.17 0.15 0.14 0.14 0.13 0.12 0.10 0.09 0.09
0.52 0.53 0.52 0.50 0.40 0.36 0.33 0.31 0.29 0.29 0.29 0.28 0.31 0.30 0.29 0.32 0.30 0.30 0.31 0.34 0.31 0.29 0.28 0.30 0.30 0.30 0.31 0.31 0.31 0.31 0.30 0.30 0.28 0.22 0.18 0.18 0.21 0.21 0.20 0.21 0.20 0.19 0.18 0.16 0.15 0.14 0.14 0.13 0.12 0.11 0.10 0.09 0.08 0.08
0.51 0.54 0.46 0.45 0.37 0.34 0.32 0.34 0.30 0.31 0.29 0.29 0.28 0.29 0.26 0.25 0.26 0.27 0.30 0.28 0.27 0.28 0.30 0.30 0.30 0.29 0.29 0.30 0.31 0.31 0.29 0.24 0.21 0.21 0.21 0.21 0.19 0.18 0.18 0.18 0.17 0.16 0.16 0.15 0.14 0.13 0.12 0.11 0.10 0.09 0.09 0.09 0.09 0.09
0.53 0.50 0.42 0.38 0.31 0.29 0.28 0.36 0.26 0.27 0.23 0.24 0.26 0.24 0.23 0.23 0.25 0.28 0.24 0.26 0.27 0.31 0.31 0.31 0.31 0.32 0.31 0.32 0.30 0.25 0.22 0.21 0.20 0.20 0.19 0.19 0.18 0.18 0.17 0.16 0.16 0.14 0.14 0.13 0.13 0.12 0.10 0.10 0.09 0.08 0.08 0.09 0.08 0.08
0.49 0.40 0.34 0.30 0.28 0.25 0.30 0.26 0.28 0.26 0.25 0.23 0.21 0.20 0.21 0.22 0.25 0.23 0.21 0.24 0.27 0.31 0.30 0.30 0.31 0.31 0.31 0.28 0.20 0.20 0.21 0.21 0.19 0.18 0.18 0.17 0.15 0.15 0.15 0.14 0.13 0.13 0.13 0.13 0.12 0.11 0.10 0.09 0.09 0.09 0.08 0.08 0.08 0.08
0.32 0.30 0.31 0.26 0.29 0.25 0.22 0.22 0.22 0.21 0.19 0.21 0.19 0.19 0.20 0.22 0.19 0.19 0.20 0.23 0.27 0.28 0.31 0.32 0.31 0.30 0.23 0.19 0.19 0.20 0.21 0.19 0.17 0.16 0.16 0.16 0.14 0.13 0.12 0.13 0.13 0.14 0.13 0.12 0.11 0.10 0.09 0.09 0.08 0.08 0.08 0.08 0.08 0.08
0.25 0.28 0.27 0.26 0.26 0.23 0.22 0.19 0.19 0.19 0.19 0.19 0.19 0.22 0.23 0.20 0.19 0.18 0.21 0.25 0.28 0.29 0.30 0.30 0.25 0.21 0.19 0.20 0.20 0.19 0.18 0.19 0.18 0.15 0.14 0.14 0.13 0.12 0.12 0.12 0.12 0.12 0.13 0.12 0.10 0.09 0.08 0.07 0.07 0.07 0.07 0.07 0.07 0.07
0.23 0.25 0.29 0.32 0.29 0.28 0.24 0.24 0.23 0.20 0.19 0.18 0.19 0.20 0.20 0.17 0.18 0.21 0.25 0.28 0.28 0.31 0.32 0.27 0.23 0.22 0.21 0.21 0.21 0.20 0.18 0.17 0.15 0.14 0.14 0.14 0.14 0.14 0.14 0.13 0.12 0.12 0.12 0.11 0.09 0.08 0.07 0.07 0.06 0.06 0.06 0.07 0.07 0.06
0.24 0.25 0.24 0.26 0.26 0.26 0.23 0.22 0.21 0.20 0.20 0.22 0.22 0.19 0.19 0.19 0.19 0.24 0.26 0.29 0.30 0.32 0.30 0.25 0.23 0.23 0.21 0.20 0.19 0.17 0.16 0.15 0.14 0.13 0.12 0.12 0.12 0.14 0.14 0.13 0.12 0.11 0.10 0.09 0.08 0.08 0.07 0.07 0.07 0.07 0.06 0.06 0.06 0.07
0.22 0.23 0.24 0.23 0.23 0.23 0.22 0.22 0.21 0.23 0.24 0.23 0.21 0.20 0.21 0.24 0.25 0.23 0.27 0.30 0.31 0.29 0.26 0.22 0.21 0.21 0.20 0.19 0.18 0.17 0.16 0.14 0.12 0.10 0.09 0.09 0.11 0.12 0.13 0.12 0.11 0.10 0.09 0.08 0.08 0.08 0.08 0.07 0.07 0.07 0.07 0.07 0.07 0.07
0.21 0.22 0.19 0.19 0.20 0.20 0.22 0.23 0.23 0.25 0.26 0.26 0.26 0.25 0.24 0.24 0.22 0.20 0.23 0.26 0.26 0.25 0.23 0.21 0.21 0.20 0.18 0.16 0.15 0.15 0.14 0.14 0.12 0.11 0.10 0.10 0.12 0.13 0.12 0.11 0.10 0.09 0.08 0.08 0.07 0.07 0.07 0.07 0.07 0.07 0.07 0.07 0.07 0.08
0.23 0.22 0.20 0.19 0.18 0.20 0.23 0.25 0.26 0.26 0.26 0.25 0.24 0.22 0.21 0.22 0.20 0.20 0.23 0.24 0.24 0.23 0.22 0.21 0.20 0.19 0.18 0.16 0.15 0.13 0.11 0.12 0.13 0.14 0.13 0.13 0.13 0.12 0.11 0.09 0.09 0.08 0.07 0.07 0.07 0.07 0.07 0.07 0.07 0.07 0.07 0.07 0.07 0.07
0.22 0.21 0.20 0.19 0.19 0.21 0.23 0.23 0.23 0.23 0.23 0.23 0.23 0.23 0.22 0.17 0.14 0.18 0.22 0.23 0.22 0.22 0.21 0.21 0.20 0.18 0.17 0.16 0.14 0.13 0.12 0.13 0.12 0.12 0.13 0.12 0.11 0.10 0.09 0.09 0.08 0.07 0.07 0.07 0.07 0.07 0.07 0.06 0.06 0.06 0.06 0.07 0.07 0.07
0.21 0.21 0.21 0.20 0.20 0.19 0.21 0.21 0.21 0.21 0.22 0.22 0.21 0.20 0.16 0.13 0.14 0.18 0.22 0.23 0.22 0.22 0.21 0.21 0.20 0.19 0.17 0.15 0.13 0.12 0.12 0.12 0.13 0.13 0.12 0.11 0.10 0.09 0.08 0.07 0.07 0.07 0.07 0.07 0.07 0.07 0.06 0.06 0.06 0.06 0.07 0.07 0.07 0.08
Wind_Speed
26 26 26 26 24 23 23 21 20 19 18 17 16 15 14 13 11 10 10 9 8 8 10 9 6 5 5 4 4 6 5 8 5 3 4 5 6 5 6 6 6 6 7 7 7 7 6 7 5 4 4 3 6 7
27 26 25 25 24 23 22 20 19 19 17 16 15 14 13 12 11 9 8 8 8 10 9 10 11 10 7 5 2 2 2 3 5 3 2 4 6 5 5 5 5 5 5 6 6 5 3 4 3 4 2 2 2 4
28 27 27 26 23 23 21 21 19 17 16 15 14 13 12 11 11 10 8 7 7 8 12 9 9 8 9 10 9 4 2 1 3 3 1 3 4 3 4 4 5 6 5 6 6 3 2 3 2 1 1 1 3 5
29 28 27 26 24 23 21 20 19 18 16 15 13 12 11 11 11 10 9 8 6 5 6 9 8 8 8 7 9 10 8 5 3 2 1 3 3 0 1 2 2 4 5 5 3 5 2 3 2 1 2 3 4 4
30 29 28 25 24 23 22 20 19 17 16 14 14 12 11 12 12 10 9 9 8 6 5 8 10 8 7 8 10 9 9 6 3 1 2 3 1 0 1 1 2 3 2 2 2 2 2 1 2 3 4 2 2 3
31 31 29 26 25 23 22 21 19 17 16 15 14 13 11 10 12 8 7 9 10 7 4 5 5 7 6 6 9 9 8 6 4 2 2 3 1 2 2 2 1 1 2 3 4 6 6 6 4 3 3 2 2 2
30 30 29 27 25 23 22 21 19 18 16 16 14 12 12 12 13 9 5 4 9 6 4 4 5 6 6 6 7 9 9 7 5 3 3 3 0 3 2 3 5 4 5 5 4 6 5 6 3 3 3 2 2 2
28 29 28 26 25 24 22 20 19 18 17 16 14 13 12 13 13 11 6 6 8 5 3 3 4 5 7 7 7 9 8 8 6 5 4 4 1 1 3 5 5 4 3 5 5 5 5 4 4 3 2 2 2 2
27 27 27 26 25 24 22 20 20 19 18 16 14 13 13 12 11 12 9 8 6 4 4 4 4 4 5 8 8 8 9 7 5 5 5 5 2 2 4 5 5 5 3 2 3 2 1 2 2 3 3 3 3 3
26 26 26 26 25 24 22 21 21 21 20 17 16 14 11 12 13 12 8 7 7 7 7 6 5 5 5 7 8 8 9 7 5 4 5 4 4 3 4 3 1 2 3 2 1 1 2 3 3 4 4 4 4 4
26 26 26 25 25 24 23 23 23 23 21 19 16 14 13 17 11 10 9 8 6 6 6 7 9 7 6 8 9 11 8 6 4 4 5 5 4 4 4 3 1 1 1 2 2 2 3 3 3 3 4 4 5 5
25 25 25 25 24 24 25 26 26 24 21 20 17 14 16 12 10 10 9 7 6 6 5 5 7 9 8 8 10 10 7 6 3 4 5 5 4 6 4 3 1 0 1 2 2 3 3 4 4 4 4 5 5 6
23 24 24 25 25 26 27 27 27 25 23 19 15 17 14 14 12 12 11 8 7 6 4 6 8 9 10 11 10 8 6 4 4 3 4 4 7 6 4 2 1 1 1 1 2 3 3 4 4 4 5 6 6 8
20 21 23 25 27 28 28 28 29 28 21 19 18 16 16 13 15 10 10 9 8 6 7 10 10 9 11 10 7 7 6 4 4 4 5 7 9 5 3 2 2 2 2 2 3 3 4 4 5 6 7 8 9 10
18 18 21 26 29 30 31 31 32 29 21 17 18 17 18 14 11 13 9 7 8 10 10 11 9 10 9 7 6 5 5 5 5 5 6 8 8 6 4 3 3 2 2 3 3 4 5 6 7 8 10 11 12 14
16 12 13 21 27 30 33 34 30 26 21 17 16 14 15 14 12 13 12 9 10 13 12 11 10 8 8 7 6 7 5 5 4 4 6 8 7 5 5 3 2 2 3 3 3 4 6 8 10 12 14 16 17 19
15 14 17 21 26 31 34 31 27 21 21 15 15 15 13 14 16 14 11 12 13 14 13 11 9 8 6 5 6 6 5 4 5 6 6 6 6 5 3 3 3 2 1 3 6 8 10 12 15 17 19 20 22 23
21 22 22 26 29 29 29 25 22 17 17 17 15 15 12 14 14 14 14 14 15 15 13 10 8 8 7 5 4 5 4 5 5 6 5 5 5 4 3 3 2 2 4 7 10 12 15 17 19 21 23 24 26 27
24 23 22 23 26 24 21 19 17 16 15 14 14 15 13 13 13 14 15 15 15 14 13 9 7 7 7 6 5 5 6 5 6 5 5 5 4 4 3 1 3 6 8 11 14 16 19 21 23 24 26 27 28 29
23 21 19 20 20 17 15 16 15 15 15 14 13 13 13 15 15 14 14 15 14 12 10 10 9 7 6 5 6 7 7 7 8 6 5 5 3 2 2 4 7 10 12 15 17 19 21 23 25 26 28 28 28 27
19 18 19 19 17 13 13 14 13 14 16 14 13 13 14 14 14 13 12 12 12 11 10 9 8 7 5 4 6 9 9 8 6 6 6 3 1 2 5 8 10 13 16 18 20 22 24 25 27 28 28 27 27 26
16 15 15 14 14 13 11 12 15 15 14 15 14 13 13 13 12 12 11 10 10 11 10 9 9 7 7 8 8 8 9 8 6 5 3 1 3 6 8 10 13 16 19 20 23 24 25 27 27 28 27 27 26 26
15 13 11 12 12 12 13 14 13 13 14 15 14 12 11 11 11 11 10 10 10 10 10 10 9 10 10 9 10 10 8 6 5 2 1 4 6 9 11 14 17 19 21 23 24 25 26 27 27 27 27 26 26 25
10 10 10 10 11 12 13 12 13 13 14 14 13 12 11 11 11 9 9 9 10 11 11 12 12 11 9 10 9 8 6 5 2 2 4 6 9 12 14 16 19 21 23 24 26 27 28 28 28 27 26 26 26 24
9 7 7 9 11 12 12 14 14 13 12 13 13 12 12 11 9 9 10 10 11 12 13 13 11 10 11 10 8 6 5 4 4 5 8 9 11 14 17 19 21 23 25 26 28 28 29 29 28 27 27 26 25 24
7 4 5 7 11 13 15 15 16 15 14 13 13 12 11 10 10 9 11 13 13 14 13 13 12 12 10 8 7 6 5 5 6 8 10 12 14 17 19 21 23 25 27 28 29 29 29 28 27 27 27 25 24 23
7 5 6 7 9 12 13 14 15 14 14 14 14 13 11 10 11 10 11 13 14 14 13 13 12 11 10 8 6 5 6 7 9 11 12 15 17 20 22 24 25 27 28 29 29 29 28 27 27 27 26 24 23 23
8 7 9 9 10 11 13 13 13 13 13 13 14 13 12 11 10 10 11 13 15 15 13 12 11 10 8 7 6 6 7 8 9 11 14 16 19 21 23 24 26 27 29 29 29 28 27 27 27 26 25 24 23 22
7 7 9 9 9 9 10 12 12 12 12 13 13 12 12 10 9 9 11 15 16 15 13 12 9 8 7 6 7 8 9 11 13 15 18 19 22 23 24 26 27 28 29 29 28 28 27 27 27 26 24 23 23 23
7 8 8 8 8 9 9 11 12 12 12 13 12 12 11 10 8 9 12 14 15 13 12 11 9 9 8 8 9 10 12 14 16 18 19 21 24 24 25 27 28 29 29 28 28 28 28 27 26 25 24 23 23 23
9 8 8 8 9 10 11 11 12 12 11 11 11 11 11 10 9 9 11 13 13 12 11 10 9 9 9 10 12 13 15 17 18 19 21 22 23 24 26 27 28 28 28 28 28 28 28 27 26 25 24 24 24 24
8 9 10 9 9 10 10 10 11 11 10 11 10 10 10 10 9 10 11 12 12 11 11 10 10 11 11 12 13 15 16 16 18 20 21 23 24 25 26 27 27 28 28 28 28 28 28 27 26 25 25 26 26 26
8 9 9 9 9 10 11 11 10 10 10 10 10 11 11 10 9 10 11 11 12 12 11 11 11 11 12 13 14 14 16 17 19 20 22 23 24 25 26 27 27 28 28 28 28 28 28 27 27 27 27 27 28 28
Wind_Direction
234 234 235 235 238 241 244 248 252 256 262 268 272 275 274 274 264 264 282 267 261 247 247 243 258 281 302 325 349 349 40 47 51 93 188 196 205 210 235 251 267 267 264 260 249 246 255 315 292 312 279 299 348 8
234 234 234 233 237 238 242 244 248 253 258 263 266 267 267 261 249 253 276 266 255 242 242 248 254 261 260 262 291 10 49 39 40 57 144 199 204 219 242 238 287 258 277 267 264 252 275 312 306 304 297 311 11 49
233 233 230 231 236 236 238 242 246 247 252 257 260 257 256 248 241 247 267 263 260 256 257 246 243 255 250 245 238 251 249 330 20 35 164 174 189 217 235 237 275 292 295 248 252 249 286 308 319 324 261 81 76 80
231 231 229 231 233 234 238 240 239 244 248 250 250 245 245 242 238 241 253 250 247 253 248 235 238 248 253 246 234 235 242 267 290 326 177 169 176 63 164 235 291 292 286 281 201 184 237 337 334 175 142 139 93 82
230 227 226 231 230 233 235 234 234 240 242 242 234 237 242 242 231 234 244 239 238 241 251 257 261 238 255 242 229 229 228 231 239 259 195 177 179 343 15 328 334 327 291 190 209 239 127 94 123 144 137 106 85 108
226 224 225 227 229 230 229 227 232 236 233 230 228 229 236 225 208 219 241 240 228 232 259 256 251 240 244 236 216 210 207 205 206 226 229 206 200 319 323 339 336 104 84 124 139 106 112 117 103 121 125 107 89 121
220 222 224 224 225 224 223 225 228 227 225 221 220 227 224 208 207 214 228 231 199 203 243 266 252 230 231 215 206 205 208 209 221 244 219 204 235 352 24 105 105 93 91 95 141 136 98 83 95 101 96 92 89 86
220 218 218 220 220 218 219 221 223 219 215 213 215 213 210 202 199 207 217 187 181 202 237 266 248 244 213 209 206 204 206 210 220 231 226 206 192 34 96 117 94 83 102 91 92 106 107 91 71 61 51 52 36 12
214 214 215 215 213 213 215 217 213 208 205 202 202 195 188 199 202 200 188 180 195 215 247 257 247 235 216 210 202 198 200 209 219 227 209 205 195 142 133 123 97 73 75 93 108 106 111 352 348 349 350 348 352 331
212 213 211 211 210 210 211 209 204 199 197 194 188 191 194 196 172 175 200 210 225 247 255 261 238 228 210 203 198 197 196 200 211 213 188 193 198 176 165 155 129 39 20 26 234 342 330 327 331 332 333 325 320 311
209 208 208 207 208 208 207 202 195 191 190 192 191 192 184 173 193 202 206 215 227 259 258 254 223 218 209 192 188 188 185 190 213 202 203 191 192 185 178 186 202 9 6 18 16 356 344 333 330 330 332 331 326 319
204 205 205 207 206 205 199 194 190 190 192 190 186 181 182 199 207 210 211 219 234 253 249 228 202 194 184 180 174 174 185 188 208 193 196 204 189 173 166 159 159 1 7 360 355 359 349 345 337 329 325 325 321 313
202 205 207 206 202 197 193 192 191 188 181 183 192 195 200 205 211 211 213 219 225 228 218 186 173 170 167 165 173 178 186 189 181 191 212 201 178 171 178 203 236 280 314 340 346 341 340 339 330 323 318 311 310 308
201 203 203 202 200 198 195 193 190 187 189 196 195 194 207 212 216 218 215 218 221 206 178 166 163 164 167 170 176 190 202 209 213 228 220 198 190 190 209 236 229 246 274 299 313 322 326 327 322 318 313 308 305 305
205 198 204 206 206 201 197 194 190 190 194 201 203 211 214 216 217 209 202 202 205 186 173 166 165 167 173 182 188 188 202 224 229 226 211 192 191 204 217 208 216 236 279 304 311 313 315 316 316 315 312 310 308 306
162 170 188 194 193 190 186 180 183 188 191 197 202 206 206 206 203 195 200 196 185 179 171 167 168 174 184 189 197 205 197 215 205 202 181 179 190 198 205 218 240 266 287 299 308 313 314 314 313 311 308 307 305 303
143 141 136 139 154 162 167 174 177 182 191 195 197 196 196 199 193 193 192 185 180 175 176 174 178 186 176 194 208 205 214 210 192 171 171 182 187 196 212 223 251 249 278 306 310 313 313 313 312 312 310 308 306 304
130 130 133 136 137 145 157 167 174 179 182 187 188 191 184 182 186 186 183 182 179 179 179 185 182 187 193 196 207 204 206 197 194 193 197 196 194 192 193 179 213 285 307 313 314 314 313 313 313 311 309 308 306 305
137 131 131 138 144 144 153 160 165 169 172 177 177 179 182 180 175 176 180 178 179 182 184 191 193 203 212 222 221 207 188 185 178 176 166 163 169 170 176 246 300 311 314 315 315 315 315 314 314 314 313 310 308 306
136 139 140 144 147 146 155 164 170 168 169 167 167 170 171 171 171 172 174 180 182 187 195 204 207 212 218 228 221 196 181 166 158 158 163 160 160 174 284 307 313 316 318 319 320 319 318 318 317 316 315 314 312 310
140 142 142 146 151 150 147 157 160 164 166 164 161 162 163 166 171 173 176 184 188 195 196 199 201 208 208 192 168 162 162 168 165 160 158 163 212 303 317 318 320 320 320 319 319 319 319 318 318 317 317 315 314 312
148 151 154 155 159 162 157 159 160 163 167 166 163 162 164 169 174 179 182 182 188 193 195 195 190 188 177 163 160 163 158 154 152 153 151 185 311 318 319 320 322 323 323 321 321 321 320 320 320 319 317 316 314 313
147 149 149 154 159 161 163 164 164 166 167 170 168 164 168 172 176 178 181 190 194 196 193 188 183 168 163 163 158 156 159 162 166 183 261 311 319 321 321 321 321 322 323 323 323 322 322 321 321 320 318 317 317 315
157 167 172 173 169 173 174 175 171 168 169 175 177 177 181 181 183 188 194 196 195 189 185 174 170 170 169 165 167 172 177 179 201 280 299 310 318 322 323 324 324 325 325 324 324 323 322 322 321 320 319 318 317 316
136 140 160 175 185 182 181 181 182 180 180 183 181 187 191 190 195 200 198 195 186 181 176 177 180 180 173 175 179 186 200 226 266 292 306 310 316 320 323 324 324 325 325 324 324 323 322 322 321 320 319 318 317 315
141 149 154 168 178 181 185 183 186 185 183 187 193 192 194 195 196 203 198 190 184 183 183 182 178 176 181 189 196 214 241 265 284 300 306 309 314 318 319 321 322 324 324 325 325 324 324 323 323 322 321 320 317 316
151 151 148 149 163 165 171 179 182 185 189 193 193 190 189 191 200 196 190 188 187 186 185 184 185 188 193 201 216 242 265 285 298 305 309 312 315 317 319 321 321 324 325 325 326 325 325 324 324 324 323 321 319 317
148 139 145 144 143 154 161 168 174 180 184 184 179 183 182 187 187 187 191 188 184 182 182 184 189 195 203 219 236 257 282 296 306 311 316 320 321 322 323 324 325 326 326 326 326 326 326 325 325 324 322 321 320 319
151 151 148 144 145 148 156 164 168 171 174 175 176 180 181 181 187 193 190 185 184 183 185 188 197 203 216 237 262 278 287 295 304 309 312 315 317 319 321 324 325 326 326 327 327 327 326 326 326 325 323 322 321 321
169 166 159 161 160 164 170 171 173 173 173 174 176 177 179 183 186 183 179 180 184 188 194 200 211 226 241 257 274 286 293 301 306 309 312 314 316 318 320 322 324 325 326 327 327 327 327 327 326 325 324 323 322 322
178 174 168 166 167 170 167 166 168 170 174 177 180 181 184 185 184 182 183 188 190 195 204 218 234 247 260 271 280 289 296 302 307 310 313 316 318 319 321 323 325 326 327 328 328 328 328 327 327 325 324 323 323 322
175 176 173 172 176 176 173 175 179 178 182 183 190 192 191 193 199 201 201 203 208 217 226 234 247 262 271 280 287 294 300 304 308 312 315 317 319 321 323 324 325 326 327 328 328 328 328 327 326 325 324 323 322 322
179 181 181 179 182 187 188 181 186 188 192 195 199 198 200 204 208 212 214 219 225 230 236 248 259 268 277 284 290 296 302 307 311 314 316 319 320 322 323 324 326 327 327 327 328 328 327 326 325 325 324 323 322 321